X

Important NEWS



New Hub Active

Miami is our new hub! Old members can request transfer via hr@dlxairways.net

Thank you very much and have nice flight.


Deluxe Airways.

X

Tours



Hello again, we created one nice test tour for all pilots to attend. also this is ment to be testing of our tour system

Available Tours

If you find some issues please inform us.

Thank you very much and have nice flight.


Deluxe Airways.

 METAR AND TAF INFORMATION
ArrayMETAR FOR LYPG
23035747 18 LYPG 250630Z 34003KT 260V020 CAVOK 19/09 Q1022 NOSIG LYPG 2019-04-25T06:30:00Z 42.37 19.25 19.0 9.0 340 3 6.21 30.177166 TRUE VFR METAR 43.0 LYPG 250600Z VRB02KT CAVOK 17/09 Q1022 NOSIG LYPG 2019-04-25T06:00:00Z 42.37 19.25 17.0 9.0 0 2 6.21 30.177166 TRUE VFR METAR 43.0 LYPG 250530Z VRB01KT CAVOK 15/09 Q1022 NOSIG LYPG 2019-04-25T05:30:00Z 42.37 19.25 15.0 9.0 0 1 6.21 30.177166 TRUE VFR METAR 43.0 LYPG 250500Z VRB02KT CAVOK 14/09 Q1022 NOSIG LYPG 2019-04-25T05:00:00Z 42.37 19.25 14.0 9.0 0 2 6.21 30.177166 TRUE VFR METAR 43.0

 AIRPORT MAP

 RUNWAY INFORMATION
Runway 08 Runway length 7145 ft Runway width 50 ft
Runway elevation 0 ft Runway displaced threshold 0 ft Runway heading 86
Runway 26 Runway length 7145 ft Runway width 50 ft
Runway elevation 0 ft Runway displaced threshold 0 ft Runway heading 266
Runway 18 Runway length 8202 ft Runway width 148 ft
Runway elevation 118 ft Runway displaced threshold 0 ft Runway heading 184
Runway 36 Runway length 8202 ft Runway width 148 ft
Runway elevation 82 ft Runway displaced threshold 0 ft Runway heading 4

 AIRPORT FREQUENCIES
Type APP Name APP Frequency 118.7 MHZ
Type TWR Name TWR Frequency 118.2 MHZ

 AIRPORT NEAR NAVIGATION AIDS
Type NDB Name Podgorica Frequency 312 KHZ
Type VOR-DME Name Podgorica Frequency 113000 KHZ
Type NDB Name Podgorica Frequency 335 KHZ



Powered by Virtual Airlines Manager [v2.6.2]

Template code change by DeluxeAir